Regional Weather Roundup
Issued by NWS

Home | Current Version | Previous Version | Graphics & Text | Print | Product List | Glossary On
Versions: 1 2 3 4 5 6 7 8 9 10 11 12 13 14 15 16 17 18 19 20 21 22 23 24 25 26 27 28 29 30 31 32 33 34 35 36 37 38 39 40 41 42 43 44 45 46 47 48 49 50
000
ASUS43 KMKX 280859
RWRWI

WISCONSIN REGIONAL WEATHER ROUNDUP
NATIONAL WEATHER SERVICE MILWAUKEE/SULLIVAN WI
400 AM CDT SAT MAR 28 2015

NOTE: "FAIR" INDICATES FEW OR NO CLOUDS BELOW 12,000 FEET WITH NO
SIGNIFICANT WEATHER AND/OR OBSTRUCTIONS TO VISIBILITY.

WIZ001-002-006>008-014>016-023>028-281000-
NORTHWEST WISCONSIN

CITY           SKY/WX    TMP DP  RH WIND       PRES   REMARKS
SUPERIOR ARPT  CLEAR     14  12  92 CALM      30.21S
ASHLAND        CLEAR     10   7  87 SW3       30.21S
HAYWARD        CLEAR     15   8  73 CALM      30.18S
SIREN          CLEAR     15   8  73 CALM      30.19S
CUMBERLAND     CLEAR     19  14  79 CALM      30.17S
RICE LAKE      CLEAR     19  14  80 CALM      30.20S
CHETEK         CLEAR     16  12  86 CALM      30.19S
LADYSMITH      CLEAR     18  14  84 CALM      30.19S
EAU CLAIRE     NOT AVBL
MENOMONIE      CLEAR     21  17  86 CALM      30.20S
NEW RICHMOND   CLEAR     20  15  82 CALM      30.19S
OSCEOLA        CLEAR     21  13  71 CALM      30.22S
$$

WIZ003>005-009-010-017-018-281000-
NORTH CENTRAL WISCONSIN

CITY           SKY/WX    TMP DP  RH WIND       PRES   REMARKS
MANITOWISH WTR CLEAR      7   4  89 CALM      30.15F
ARBOR VITAE    CLEAR      9   4  81 CALM      30.15S
WOODRUFF       CLEAR      9   4  81 CALM      30.15S
RHINELANDER    CLEAR      9   2  73 CALM      30.16S
EAGLE RIVER    CLEAR      3  -2  82 CALM      30.16S
LAND O LAKES   CLEAR     -4  -9  82 CALM      30.17S
PHILLIPS       CLEAR     12   7  80 CALM      30.16S
TOMAHAWK       CLEAR      4   0  85 CALM      30.18S
MEDFORD        CLEAR     14  11  86 CALM      30.17S
MERRILL        CLEAR      9   6  87 CALM      30.19S
$$

WIZ029-030-035-036-043>047-281000-
CENTRAL WISCONSIN

CITY           SKY/WX    TMP DP  RH WIND       PRES   REMARKS
WAUSAU         CLEAR     15   8  73 SE3       30.19R
MOSINEE        CLEAR     16  10  79 CALM      30.21R
MARSHFIELD     CLEAR     18  10  71 NE6       30.19R WCI  10
STEVENS POINT  CLEAR     13   7  75 CALM      30.21S
WAUPACA        CLEAR     18  13  81 CALM      30.24S
WAUTOMA        NOT AVBL
WISC RAPIDS    CLEAR     13   6  74 CALM      30.22R
CAMP DOUGLAS   NOT AVBL
$$

WIZ011>013-019>022-031-037>040-048>050-281000-
NORTHEAST WISCONSIN

CITY           SKY/WX    TMP DP  RH WIND       PRES   REMARKS
ANTIGO         CLEAR     13   5  70 SE5       30.18S WCI   5
SHAWANO        CLEAR     15  11  83 CALM      30.25S
OCONTO         CLEAR     10   7  85 CALM      30.26S
STURGEON BAY   CLEAR     16   0  48 N3        30.27R
GREEN BAY      CLEAR     19  12  74 CALM      30.25S
MANITOWOC      NOT AVBL
APPLETON       CLEAR     18  10  73 CALM      30.24S
CLINTONVILLE   CLEAR     18  12  79 CALM      30.24S
OSHKOSH        CLEAR     16  10  77 CALM      30.24R
$$

WIZ032>034-041-042-053>061-281000-
SOUTHWEST WISCONSIN

CITY           SKY/WX    TMP DP  RH WIND       PRES   REMARKS
LA CROSSE      PTCLDY    22  14  71 CALM      30.22S
SPARTA         CLEAR     12   9  87 CALM      30.22S
VIROQUA        PTCLDY    21  11  66 E5        30.17F WCI  14
BOSCOBEL       CLEAR     16  12  84 CALM      30.23R
PRAIRIE DU CHI CLEAR     16  10  77 CALM      30.22S
PLATTEVILLE    CLEAR     22  15  72 E7        30.20S WCI  14
$$

WIZ056-057-062-063-064-067-068-281000-
SOUTH CENTRAL WISCONSIN

CITY           SKY/WX    TMP DP  RH WIND       PRES   REMARKS
REEDSBURG      FAIR      17  11  77 NE3       30.21S
BARABOO/DELLS  FAIR      18   9  67 CALM      30.21S
LONE ROCK      NOT AVBL
MINERAL POINT  PTCLDY    21   9  58 SE5       30.19S WCI  15
MADISON        CLEAR     16  10  77 E3        30.22S
MIDDLETON      CLEAR     22  14  70 CALM      30.22S
WATERTOWN      CLEAR     14  11  90 CALM      30.23S
MONROE         CLEAR     19  16  86 S7        30.20S WCI  10
JANESVILLE     CLEAR     19  16  86 CALM      30.22F
$$

WIZ051-052-058>065-066-070>072-281000-
SOUTHEAST WISCONSIN

CITY           SKY/WX    TMP DP  RH WIND       PRES   REMARKS
MILWAUKEE      FAIR      20  11  68 CALM      30.23S
WAUKESHA       CLEAR     16  12  86 W3        30.23S
MILWAUKEE/TIMM CLEAR     16  10  79 CALM      30.24R
RACINE         CLEAR     17  11  77 CALM      30.25R
BURLINGTON     CLEAR     11  10  92 CALM      30.22F
KENOSHA        CLEAR     19  13  77 NW3       30.23R
FOND DU LAC    CLEAR     14  10  84 CALM      30.24R
SHEBOYGAN      CLEAR     16  11  80 N5        30.23S WCI   9
WEST BEND      CLEAR     14  10  85 CALM      30.23R
JUNEAU         CLEAR     17  12  82 CALM      30.24S
$$

LSZ147-162-281000-
LAKE SUPERIOR

STATION/POSITION TIME  TEMP    WIND        PRES    WAVE
                       AIR SEA DIR/SP/G            HT/PER
                 (UTC) (F)     (DEG/KT/KT) (MB)    (FT/S)
DEVILS ISLAND    0800   25      CALM  /  1 1024.3F
PORT WING        0800   15     170/  5/  6 1023.4R
SAXON HARBOR     0700   14        CALM     1023.0
$$

LMZ867-665-643>646-281000-
LAKE MICHIGAN

STATION/POSITION TIME  TEMP    WIND        PRES    WAVE
                       AIR SEA DIR/SP/G            HT/PER
                 (UTC) (F)     (DEG/KT/KT) (MB)    (FT/S)
NORTHPORT PIER   0820   16     300/  5/  7 1024.7S
SISTER BAY       0817   11        CALM       N/A
KEWAUNEE LAKESHO 0800   18     290/  2/  5 1023.4R
SHEBOYGAN LAKESH 0800   25      30/  4/  6 1025.2F
PORT WASHINGTON  0840   20     310/  6/  8 1024.7S
MILWAUKEE LAKESH 0800   24     320/  3/  4   N/A
KENOSHA   LAKESH 0800   24     350/  6/  8 1023.7S
$$

TC  - TEMPERATURE IN CELSIUS
VSB - VISIBILITY IN STATUTE MILES
WCI - WIND CHILL INDEX
HX  - HEAT INDEX



USA.gov is the U.S. government's official web portal to all federal, state and local government web resources and services.